Other Public Products
Issued by NWS Grand Forks, ND

Home | Current Version | Previous Version | Text Only | Print | Product List | Glossary Off
Versions: 1 2 3 4 5 6 7 8 9 10 11 12 13 14 15 16 17 18 19 20 21 22 23 24 25 26 27 28 29 30 31 32 33 34 35 36 37 38 39 40 41 42 43 44 45 46 47 48 49 50

000
FPUS83 KFGF 291331
OPUFGF
PRAIRIE TO PINES WEATHER ROUNDUP
NATIONAL WEATHER SERVICE EASTERN NORTH DAKOTA/GRAND FORKS ND
700 AM CST THU JAN 29 2015

 **SATELLITE DATA USED TO AUGMENT SKY COVER AT AUTOMATED STATIONS**
 *****  WEATHER ACROSS EASTERN NORTH DAKOTA  *****

CITY           SKY/WX    TMP DP  RH WIND       PRES   REMARKS
GRAND FORKS    CLOUDY    17  10  74 N23G31    30.35R WCI  -1
GRAND FORKS AF FLURRIES  16   9  73 N20G26    30.38R WCI  -1
GRAND CITY NWS   N/A     14 N/A N/A VRB26       N/A  WCI  -6
BUXTON           N/A     18  13  79 NW20        N/A  WCI   2
DEVILS LAKE    CLOUDY    18  10  73 N20G25    30.36R WCI   1
FARGO          CLOUDY    21  13  71 N25G33    30.32R WCI   4
WAHPETON ARPT  CLOUDY    23  18  80 N17G29    30.31R WCI   9
$$

 *****  WEATHER ACROSS CENTRAL AND WESTERN NORTH DAKOTA  *****

CITY           SKY/WX    TMP DP  RH WIND       PRES   REMARKS
JAMESTOWN      CLOUDY    24  19  81 NW20G32   30.33R WCI  10
BISMARCK       CLOUDY    27  19  72 NW15G26   30.41R WCI  15
MINOT          CLOUDY    23  17  78 NW15G25   30.40R WCI  10
MINOT AFB      CLOUDY    21  21  98 N16       30.41R WCI   7
GARRISON         N/A     25  20  81 NW17      30.39R WCI  12
WILLISTON      CLOUDY    24  18  77 NW8       30.45R WCI  15
DICKINSON      CLOUDY    26  20  77 NW21G28   30.38R WCI  12
HETTINGER      MOCLDY    25  21  85 NW12      30.39S WCI  14
$$

 *****  OTHER OBSERVATIONS NORTHEAST NORTH DAKOTA  *****

CITY           SKY/WX    TMP DP  RH WIND       PRES   REMARKS
WALHALLA       FLURRIES  10   9  92 N24G31    30.42R WCI -10
LANGDON        NOT AVBL
CAVALIER       LGT SNOW  10   7  85 N17G28    30.41R WCI  -7
GRAFTON        NOT AVBL
CANDO          FLURRIES  16  10  79 N20G25    30.40R WCI  -1
FORT TOTTEN      N/A     17  14  89 N9        29.95  WCI   6
ROLLA          FLURRIES  12  10  92 MISG      30.38R
RUGBY          CLOUDY    14  10  85 N18       30.41R WCI  -3
 ***** THE ABOVE OBSERVATIONS ARE NON NWS ARE NOT QUALITY
        CONTROLLED AND MAY MIS-REPORT RAIN FOR SNOW...
$$

 *****  OTHER OBSERVATIONS SOUTHEAST NORTH DAKOTA *****

CITY           SKY/WX    TMP DP  RH WIND       PRES   REMARKS
COOPERSTOWN    NOT AVBL
VALLEY CITY    MIX PCPN  23  23 100 N17G25    30.33R WCI   9
OAKES            N/A     27  27 100 NW16G23   30.33R WCI  14
GWINNER        CLOUDY    28  27  93 N17G24    30.34R WCI  16
BUFFALO        NOT AVBL
WYNDMERE         N/A     25  21  86 N18         N/A  WCI  11
 ***** THE ABOVE OBSERVATIONS ARE NON NWS ARE NOT QUALITY
       CONTROLLED AND MAY MIS-REPORT RAIN FOR SNOW...
$$

  *****  WEATHER ACROSS NORTHERN MINNESOTA  *****

CITY           SKY/WX    TMP DP  RH WIND       PRES   REMARKS
FLAG ISLAND    CLOUDY     7   3  85 NW24      30.23R FOG     WCI -15
WARROAD        CLOUDY     9   3  78 NW20      30.26R WCI -11
ROSEAU         CLOUDY    10   5  79 NW20G26   30.28R WCI  -8
HALLOCK        CLOUDY     9   3  78 N26G35    30.37R WCI -13
THF RVR FALLS  CLOUDY    12   7  79 NW22      30.29R WCI  -7
HALSTAD          N/A     18  10  71 N23         N/A  WCI   1
FOSSTON        FLURRIES  12   9  85 NW15      30.27R WCI  -4
BAUDETTE       CLOUDY    10   5  80 NW23G33   30.18R WCI -10
WASKISH        CLOUDY    16  12  86 NW12G21   30.18R WCI   3
CROOKSTON      FLURRIES  14  10  85 N25       30.35R WCI  -5
$$
  *****  WEATHER ACROSS CENTRAL AND WEST MINNESOTA  *****

CITY           SKY/WX    TMP DP  RH WIND       PRES   REMARKS
BEMIDJI        CLOUDY    16  13  89 NW18      30.18R WCI  -1
PARK RAPIDS    CLOUDY    19  15  84 NW17G26   30.16R WCI   4
WADENA         CLOUDY    18  16  93 NW18G24   30.19R WCI   2
DETROIT LAKES  FLURRIES  18  14  86 N23G30    30.26R WCI   0
MOORHEAD       CLOUDY    19  16  86 N22       30.33R WCI   3
FERGUS FALLS   CLOUDY    19  16  86 N21G30    30.30R WCI   3
ELBOW LAKE     CLOUDY    20  17  86 NW22      30.25R WCI   4
MORRIS MN      CLOUDY    25  19  80 NW26      30.25R WCI   9
STAPLES        CLOUDY    19  18  93 NW16      30.16R WCI   5
WHEATON        CLOUDY    23  18  80 NW21G30   30.32R WCI   8
$$
  *****  WEATHER ELSEWHERE ACROSS MINNESOTA  *****

CITY           SKY/WX    TMP DP  RH WIND       PRES   REMARKS
DULUTH         CLOUDY    28  22  78 NW20G30   29.97R WCI  15
INTRNTL FALLS  CLOUDY    19  16  86 NW17      30.10R WCI   4
ELY            CLOUDY    19  18  93 NW15G21   29.99R WCI   5
CLOQUET        CLOUDY    28  23  80 NW12G22   30.01R WCI  18
BRAINERD       CLOUDY    26  21  81 NW21G28   30.10R WCI  12
HIBBING        CLOUDY    24  20  84 NW24G30   30.04R WCI   8
ALEXANDRIA     CLOUDY    22  18  85 NW21G28   30.19R WCI   6
SAINT CLOUD    CLOUDY    28  22  78 NW17G32   30.10R WCI  16
MINNEAPOLIS    CLOUDY    31  27  85 NW18G26   30.08R WCI  19
$$

  *****  WEATHER ACROSS SOUTH DAKOTA  *****

CITY           SKY/WX    TMP DP  RH WIND       PRES   REMARKS
SIOUX FALLS    CLOUDY    31  24  75 N22G30    30.26R WCI  18
BROOKINGS      NOT AVBL
WATERTOWN      CLOUDY    27  22  81 N21G28    30.26R WCI  13
HURON          CLOUDY    32  26  78 N17       30.33R WCI  21
SISSETON         N/A     27  23  85 N15       30.28R WCI  15
ABERDEEN       CLOUDY    32  25  75 N22       30.34R WCI  19
MITCHELL       CLOUDY    33  28  81 N15       30.34R WCI  23
PIERRE         CLOUDY    35  26  69 NW15      30.37R
MOBRIDGE       CLOUDY    30  21  69 NW25G31   30.34R WCI  16
RAPID CITY     CLEAR     25  22  88 W6        30.43R WCI  18
$$

  *****  SOME WEATHER IN NEARBY STATES *****

CITY           SKY/WX    TMP DP  RH WIND       PRES   REMARKS
GLASGOW MT     CLEAR     20  17  88 E3        30.43S FOG
GREAT FALLS MT CLEAR     27  22  81 S9        30.33F WCI  18
CHEYENNE WY    CLOUDY    31  19  61 N10       30.42R WCI  22
SCOTTSBLUFF NE CLEAR     30  24  78 NW7       30.44R WCI  23
OMAHA NE       CLOUDY    36  28  73 NW18G29   30.22R
DES MOINES IA  DRIZZLE   35  30  82 N22G31    30.10R WCI  23
DAVENPORT IA   CLOUDY    34  28  79 NW28G35   29.91R WCI  21
CHICAGO IL     CLOUDY    35  28  75 NW10      29.72S
EAU CLAIRE WI  CLOUDY    33  26  75 NW21G26   29.96R WCI  21
LA CROSSE WI   CLOUDY    34  29  82 NW10      29.95R
$$

  *****  SOME NATIONAL WEATHER *****

CITY           SKY/WX    TMP DP  RH WIND       PRES   REMARKS
LA GUARDIA NY  PTCLDY    23   7  50 N3        30.34R
RALEIGH NC     MOCLDY    28  11  48 CALM      30.35S
ATLANTA GA     MOCLDY    36  27  69 S3        30.29R
NEW ORLEANS LA PTCLDY    50  48  93 SE7       30.22S
OKLAHOMA CITY  PTCLDY    50  33  52 N17       30.22R
ALBUQUERQUE NM CLOUDY    48  29  47 E14       30.32R
SALT LAKE CITY PTCLDY    31  30  96 S5        30.36F
LOS ANGELES CA CLOUDY    64  44  48 N3        30.01F
BOISE ID       CLOUDY    35  31  85 SE7       30.41F
SEATTLE WA     MOCLDY    42  38  85 N9        30.35S
$$

*** WEATHER ACROSS MANITOBA...SASKATCHEWAN AND ONTARIO ***
                ***ONTARIO***

CITY           SKY/WX    TMP DP  RH WIND       PRES   REMARKS
GERALDTON      FLURRIES   5   1  85 NW14G23   29.86R WCI -12
THUNDER BAY    FLURRIES  27  21  80 N16G29    29.89R WCI  14
SIOUX LOOKOUT  FLURRIES   7   1  78 N8        30.08R WCI  -6
TORONTO        CLOUDY    27  14  59 SE12      30.03F WCI  16
BIG TROUT LK   PTCLDY   -13 -18  77 NW7       30.20R WCI -29
PICKLE LAKE    FLURRIES  -2  -9  71 N8        30.07R WCI -17
DRYDEN         FLURRIES   9   5  85 NW13G25   30.10R WCI  -7
KENORA         LGT SNOW   9   5  85 NW15G25   30.17R DRFTSNOWWCI  -8
$$
                *** MANITOBA***

CITY           SKY/WX    TMP DP  RH WIND       PRES   REMARKS
BRANDON        FLURRIES  10   5  79 NW13      30.44R WCI  -5
DAUPHIN        CLOUDY     3  -4  72 N13G18    30.51R WCI -14
ISLAND LAKE    PTCLDY   -11 -17  77 NW7       30.34R WCI -26
PILOT MOUND      N/A      9   7  92 N14         N/A  WCI  -8
THE PAS        CLEAR    -15 -18  84 NW8       30.55R WCI -32
THOMPSON       CLEAR    -18 -26  69 NW6       30.42R WCI -33
WINNIPEG       MOCLDY     5  -2  72 N24G30    30.42R WCI -17
LYNN LAKE      CLEAR    -22 -29  69 W9        30.43R WCI -42
CHURCHILL      CRYSTALS -22 -29  69 NW20G26   30.27S WCI -51
GILLAM         PTCLDY   -20 -27  69 W12G17    30.33R WCI -42
$$
                ***SASKATCHEWAN***

CITY           SKY/WX    TMP DP  RH WIND       PRES   REMARKS
ESTEVAN        FLURRIES  18  14  86 N10       30.44R WCI   6
KINDERSLEY     MOCLDY     9   3  78 E6        30.42S WCI  -1
LLOYDMINSTER   CLEAR      3   0  85 SE9       30.40F WCI -11
PRINCE ALBERT  CLOUDY    -2  -6  84 N2        30.53
REGINA         FLURRIES  12  10  92 N8        30.47R WCI   1
YORKTON        CLOUDY     3  -2  78 N6        30.48R WCI  -8



USA.gov is the U.S. government's official web portal to all federal, state and local government web resources and services.